Flag for Micronesia Weather past 2 weeks in Tofol, Kosrae, Micronesia

Now
77 °F

Mostly cloudy.


Feels Like: 78 °F
Forecast: 82 / 87 °F
Wind: 3 mph from Northwest

Location: Pohnpei

Current Time: Jul 4, 2015 at 3:30:05 AM

Latest Report: Jul 4, 2015 at 2:51 AM


Visibility: 15 mi

Pressure: 29.81 "Hg

Humidity: 94%

Dew point: 75 °F

Location of TofolLocation

Historic Weather in Tofol — Graph

°F

Tofol temperature yesterday

Maximum temperature yesterday: 84 °F (at 2:58 PM)
Minimum temperature yesterday: 75 °F (at 9:50 PM)
Average temperature yesterday: 79 °F

Past Weeks' High & Low Weather Summary

 TemperatureHumidityPressure
High89 °F (Jun 20, 11:50 AM)100% (Jun 20, 6:52 AM)29.90 "Hg (Jun 20, 6:52 AM)
Low75 °F (Jun 28, 5:53 AM)67% (Jun 20, 12:51 PM)29.71 "Hg (Jul 1, 3:50 PM)
Average81 °F88%29.81 "Hg
* Reported Jun 19 1:50 AM — Jul 4 1:52 AM, Tofol, Weather by CustomWeather, © 2015

Note: Actual official high and low records may vary slightly from our data, if they occured in-between our weather recording intervals... More about our weather records

Advertising

Tofol weather history for previous 24 hours

 ConditionsComfort  
Time TempWeatherWind HumidityBarometerVisibility
1:52 AM
Sat, Jul 4
76 °FMostly cloudy.3 mph97%29.80 "Hg15 mi
12:53 AM76 °FMostly cloudy.3 mph97%29.81 "Hg15 mi
11:54 PM
Fri, Jul 3
77 °FSprinkles. Mostly cloudy.3 mph93%29.84 "Hg11 mi
10:56 PM76 °FSprinkles. Mostly cloudy.5 mph96%29.85 "Hg10 mi
9:50 PM75 °FSprinkles. Mostly cloudy.3 mph99%29.85 "Hg10 mi
8:51 PM75 °FMostly cloudy.3 mph96%29.83 "Hg15 mi
7:54 PM76 °FMostly cloudy.2 mph96%29.80 "Hg15 mi
6:51 PM76 °FMostly cloudy.3 mph96%29.78 "Hg15 mi
5:52 PM77 °FSprinkles. Mostly cloudy.3 mph90%29.77 "Hg10 mi
4:56 PM79 °FSprinkles. Mostly cloudy.3 mph95%29.75 "Hg10 mi
3:53 PM77 °FRain showers. Overcast.10 mph94%29.74 "Hg7 mi
2:58 PM84 °FMostly cloudy.6 mph77%29.73 "Hg15 mi
1:56 PM82 °FSprinkles. Mostly cloudy.5 mph89%29.75 "Hg15 mi
12:50 PM83 °FMostly cloudy.3 mph84%29.77 "Hg15 mi
11:50 AM83 °FMostly cloudy.6 mph85%29.80 "Hg15 mi
10:50 AM80 °FMostly cloudy.7 mph90%29.80 "Hg15 mi
9:50 AM79 °FMostly cloudy.3 mph90%29.80 "Hg15 mi
8:50 AM78 °FMostly cloudy.7 mph96%29.80 "Hg15 mi
7:56 AM77 °FSprinkles. Mostly cloudy.3 mph95%29.78 "Hg5 mi
6:52 AM78 °FSprinkles. Mostly cloudy.5 mph90%29.75 "Hg7 mi
5:53 AM78 °FSprinkles. Mostly cloudy.6 mph87%29.75 "Hg7 mi
4:51 AM79 °FMostly cloudy.6 mph86%29.74 "Hg8 mi
3:50 AM79 °FMostly cloudy.6 mph89%29.72 "Hg12 mi
Weather by CustomWeather, © 2015

See weather overviewHow to use our weather pages